Regional Weather Roundup
Issued by NWS Newport/Morehead, NC

Current Version | Previous Version | Graphics & Text | Print | Product List | Glossary Off
Versions: 1 2 3 4 5 6 7 8 9 10 11 12 13 14 15 16 17 18 19 20 21 22 23 24 25 26 27 28 29 30 31 32 33 34 35 36 37 38 39 40 41 42 43 44 45 46 47 48 49 50
000 ASUS42 KMHX 220310 RWRMHX WEATHER ROUNDUP FOR EASTERN NORTH CAROLINA NATIONAL WEATHER SERVICE NEWPORT/MOREHEAD CITY NC 1100 PM EDT SUN SEP 21 2014 NOTE: "FAIR" INDICATES FEW OR NO CLOUDS BELOW 12,000 FEET WITH NO SIGNIFICANT WEATHER AND/OR OBSTRUCTIONS TO VISIBILITY NCZ015>017-031-032-045>047-102-103-220400- NORTH COAST CITY SKY/WX TMP DP RH WIND PRES REMARKS EDENTON CLEAR 74 66 74 SW9 29.82S ELIZABETH CITY CLEAR 73 66 78 SW10 29.80S KITTY HAWK CLEAR 73 67 80 SW8 29.81S MANTEO CLEAR 73 67 83 SW12 29.82F $$ NCZ045>047-081-094-103-104-220400- CENTRAL COAST CITY SKY/WX TMP DP RH WIND PRES REMARKS FRISCO CLEAR 74 69 85 W13G20 29.86S SWANQUARTER N/A 75 N/A N/A SW15 29.82S $$ NCZ095-097-098-100-101-220400- SOUTHERN COAST CITY SKY/WX TMP DP RH WIND PRES REMARKS BEAUFORT CLEAR 78 71 79 SW13 29.88S CEDAR ISLAND N/A 75 N/A N/A S7G15 29.91S JACKSONVILLE CLEAR 74 65 73 SW9 29.88S NEWPORT NOT AVBL PINEY ISLAND CLEAR 76 69 79 SW8 29.87S WILMINGTON CLEAR 76 69 79 SW9 29.91S $$ NCZ011>013-027>030-043-044-078>080-089-090>093-098-220400- COASTAL PLAIN CITY SKY/WX TMP DP RH WIND PRES REMARKS AHOSKIE CLEAR 72 65 79 S3 29.82R CLINTON MOCLDY 73 67 80 S3 29.89S ELIZABETHTOWN CLEAR 74 66 75 SW6 29.91R GOLDSBORO CLEAR 75 70 82 SW2 29.85R GREENVILLE CLEAR 73 66 78 SW8 29.87R HAVELOCK CLEAR 75 66 73 SW12 29.89S KENANSVILLE CLEAR 72 64 78 CALM 29.90R KINSTON CLEAR 74 65 75 SW8 29.88R NEW BERN CLEAR 73 64 73 SW7 29.88S RICHLANDS CLEAR 72 63 73 SW9 29.89S ROANOKE RAPIDS NOT AVBL ROCKY MOUNT CLEAR 73 65 75 SW7 29.85R WASHINGTON CLEAR 73 65 75 SW7 29.85S WHITEVILLE CLEAR 73 65 76 SW5 29.91R $$ AMZ130-135-150-152-154-156-158-170-250-252-270-ANZ085-086-088-633-658-670-220400- MARINE OBSERVATIONS STATION/POSITION TIME TEMP WIND PRES WAVE SWELL AIR SEA DIR/SP/G HT/PER HT/PER (UTC) (F) (DEG/KT/KT) (MB) (FT/S) (FT/S) CHESAPEAKE LIGHT 0200 76 220/ 20/ 22 1008.1 BUOY 44014 0300 76 77 230/ 17/ 21 1007.9 5/ 8 3/ 8 DUCK 0300 76 74 220/ 13/ 19 1008.6 2E DUCK 0300 N/A 3/ 9 2/11 OREGON INLET 0300 76 76 210/ 14/ 16 1009.9 BUOY 44095 0300 74 N/A 5/ 9 2/11 20E OREGON INLET NOT AVBL HATTERAS CG NOT AVBL DIAMOND BUOY 0300 80 240/ 21/ 25 1010.8 6/ 9 5/ 9 CAPE LOOKOUT 0200 79 230/ 11/ 15 1012.0 BEAUFORT LAB 0300 78 75 240/ 6/ 12 1011.5 30 SE NEW RIVER 0300 81 82 240/ 19/ 23 1011.8 5/ 8 2/ 8 5 SE WRIGHTSVILL 0200 76 79 240/ 14/ 19 N/A BUOY 41002 0248 80 81 250/ 12/ 16 1015.5 7/ 7 7/ 7 BUOY 41004 0300 81 82 220/ 16/ 17 1014.2 3/ 7 2/ 7 $$

USA.gov is the U.S. government's official web portal to all federal, state and local government web resources and services.